Temp
24 22 22 23 23 23 22 22 22 22 21 22 21 21 21 20 20 20 20 20 20 19 20 20 20 20 20 21 21 22 22 23
23 21 22 22 22 22 22 22 22 22 22 22 21 21 21 20 19 19 20 20 20 19 19 20 20 20 20 20 21 22 23 23
21 20 21 21 21 21 21 22 21 21 21 21 21 20 20 20 19 20 20 20 19 19 19 20 20 20 21 21 22 22 22 22
22 21 21 20 20 21 20 20 21 21 20 20 20 20 20 20 19 19 20 19 19 19 19 20 20 20 21 22 22 22 23 22
23 23 21 21 22 21 20 20 20 20 19 20 20 21 21 20 20 19 19 19 19 19 20 20 21 21 20 22 22 22 23 23
24 23 22 22 22 21 20 20 20 20 20 20 21 22 21 21 21 20 19 19 19 20 20 21 21 21 21 21 21 22 23 23
25 24 22 22 23 22 21 21 21 21 20 20 21 21 22 22 22 21 20 20 21 21 21 21 22 21 21 21 21 21 21 23
26 24 23 22 23 22 22 22 22 22 22 21 21 22 23 22 22 22 22 22 23 22 22 22 23 22 22 21 22 22 22 22
26 25 23 23 23 24 23 23 23 23 23 22 22 22 23 22 22 23 23 23 24 23 23 22 22 22 22 22 21 21 22 22
26 25 24 23 23 24 24 24 24 23 23 22 21 22 22 22 22 23 23 23 23 23 23 23 22 22 22 21 21 21 21 21
25 25 25 23 23 23 23 23 23 22 22 21 21 21 22 22 22 22 22 23 22 22 23 22 22 21 21 21 21 21 21 21
26 25 25 23 23 23 23 23 23 21 21 20 20 20 21 21 22 22 22 22 22 22 22 22 22 22 22 22 22 22 22 22
26 25 24 23 22 22 23 23 21 22 20 20 20 20 20 21 21 22 22 22 22 22 22 21 22 21 21 22 22 22 22 22
26 25 24 23 22 22 23 22 22 21 22 21 21 20 20 21 21 21 22 21 22 22 21 21 21 20 20 20 18 21 22 21
26 25 23 23 22 22 22 23 23 22 22 22 22 21 21 21 20 21 21 21 21 21 21 21 21 19 19 19 18 18 20 21
28 26 24 23 22 22 22 23 23 23 23 23 22 21 20 20 20 21 21 21 21 20 21 20 20 18 18 18 18 18 18 17
29 27 26 24 23 23 23 24 24 24 23 23 22 21 20 20 20 20 21 20 20 19 19 19 19 17 17 17 17 18 18 17
29 28 27 25 23 24 24 24 24 24 23 22 21 20 20 20 20 20 20 19 18 18 18 18 18 18 18 18 18 17 17 17
27 28 28 26 24 23 24 24 24 25 23 22 21 20 20 20 20 19 19 18 18 17 17 17 17 17 18 18 17 17 16 15
26 27 28 27 25 23 23 24 24 24 23 22 21 19 18 18 19 19 19 18 17 17 17 17 17 17 16 16 15 14 14 13
Height
765 770 774 779 783 787 792 797 801 804 808 812 815 818 821 824 826 827 829 831 833 835 835 836 837 837 838 839 839 839 839 838
765 770 774 778 784 788 792 797 801 805 808 811 816 818 821 824 826 828 830 832 834 835 836 837 837 838 838 839 839 839 839 839
766 770 774 778 782 787 792 797 801 805 808 812 815 818 821 824 827 828 830 832 834 835 837 837 838 838 838 839 839 839 839 841
766 770 773 777 782 786 792 796 800 804 807 810 814 818 820 823 826 828 830 832 833 835 836 837 837 837 837 838 838 839 838 839
762 768 773 777 781 784 790 794 798 802 806 809 813 817 820 823 824 827 829 831 832 834 835 835 836 836 838 838 839 839 838 839
759 766 771 775 779 782 788 793 797 801 804 807 811 814 817 820 822 824 827 829 831 832 833 833 834 837 837 838 839 839 839 838
755 760 766 772 776 779 786 789 794 798 802 805 809 811 814 817 820 821 825 827 828 830 831 832 834 835 836 838 839 839 838 838
750 755 761 768 772 774 780 786 789 795 799 801 806 809 811 814 818 819 822 824 825 827 829 830 832 833 834 835 837 838 838 838
745 752 757 762 769 772 775 781 785 789 794 797 801 806 810 812 816 818 820 822 824 826 828 828 830 832 834 834 835 836 836 837
740 748 753 759 764 771 774 777 781 783 788 791 797 802 806 810 813 815 818 820 821 824 827 828 829 830 831 833 833 834 835 836
733 742 748 754 761 766 771 776 777 780 785 788 793 797 802 806 810 813 816 818 820 823 824 826 827 828 829 829 830 832 833 833
724 734 742 748 755 762 766 770 773 776 781 784 788 793 798 803 806 809 812 815 817 820 821 823 825 826 826 826 828 828 829 830
716 726 734 741 747 752 757 760 767 773 776 780 783 787 793 797 801 805 808 812 814 816 818 820 822 823 824 824 825 826 826 827
708 715 725 733 740 744 750 755 761 768 773 776 779 781 787 791 796 800 804 809 811 813 815 817 819 821 822 824 826 825 824 826
698 706 715 724 732 742 748 753 759 763 766 769 772 775 780 786 791 796 800 804 807 809 812 815 818 820 821 822 825 827 824 823
689 699 707 716 725 733 738 738 741 745 754 761 767 771 776 781 786 791 796 800 802 805 809 812 815 816 820 820 822 824 826 828
681 690 699 707 715 720 727 733 737 741 748 754 761 767 772 776 781 786 791 794 798 800 803 806 809 813 816 818 820 821 823 825
674 683 691 698 705 712 717 723 727 734 740 746 753 760 766 771 776 781 783 786 792 796 799 803 805 808 810 814 815 818 819 822
663 670 678 688 696 703 708 714 720 723 730 736 744 751 758 763 768 771 775 781 787 792 796 800 804 807 810 811 814 816 818 821
652 658 666 675 685 692 699 705 712 716 722 728 734 740 749 755 760 766 772 778 783 788 795 798 800 804 808 813 816 818 820 823
Wind_Speed
30 26 25 25 27 27 25 25 24 23 21 18 16 14 13 12 11 10 9 7 7 7 6 5 4 4 2 1 1 0 2 2
31 27 27 26 26 25 26 26 25 23 21 19 16 14 13 13 12 10 9 8 8 7 6 5 4 3 1 1 1 2 2 6
26 24 27 26 26 26 27 26 25 23 21 19 17 15 15 13 11 10 10 10 9 8 6 5 4 3 1 1 3 3 6 1
26 25 26 26 21 27 27 27 25 24 23 21 18 14 14 11 12 12 10 11 10 9 7 6 6 6 3 1 2 3 4 2
29 27 27 28 25 28 26 26 24 23 21 22 19 18 12 16 17 14 13 13 12 10 9 9 7 6 15 1 3 3 1 6
30 29 30 28 25 28 25 23 23 23 23 21 22 20 20 19 15 15 14 14 11 12 11 7 6 7 6 4 6 8 4 4
31 34 33 31 27 28 26 25 26 24 25 25 23 21 23 20 19 16 14 20 14 20 18 12 9 9 7 6 5 5 5 4
32 35 36 34 29 31 32 29 30 27 27 29 23 23 20 21 19 19 20 21 13 16 17 14 8 12 11 8 6 5 5 4
33 33 35 36 32 27 33 30 30 31 27 29 30 25 18 21 20 18 17 16 14 13 11 12 13 11 5 9 8 8 7 7
34 31 33 34 34 24 26 24 24 29 28 22 29 28 19 22 19 18 18 15 15 10 12 13 9 9 10 9 11 10 12 7
37 36 33 35 32 29 26 27 25 28 29 27 27 30 27 19 21 17 20 14 14 17 14 14 13 12 13 16 16 11 10 10
40 37 34 36 32 30 26 25 31 21 29 24 26 36 30 22 23 19 21 18 17 17 17 14 15 13 14 6 12 9 9 11
41 38 38 37 35 34 30 30 26 29 27 30 28 28 32 28 24 22 21 22 19 18 16 16 17 9 5 10 9 14 17 16
40 41 41 38 36 36 31 31 28 28 26 28 30 33 33 31 29 21 23 22 20 20 20 15 10 10 5 3 2 5 19 12
41 42 42 42 38 31 30 27 25 27 30 31 33 34 33 32 31 27 24 25 22 20 20 15 13 6 10 3 1 2 2 14
40 41 42 42 39 34 38 33 31 32 32 30 32 32 32 31 31 33 22 27 22 16 16 16 13 11 6 8 4 1 1 3
34 40 41 42 43 40 38 32 32 30 30 31 31 31 32 31 31 31 24 23 20 20 20 17 15 16 10 7 5 5 4 1
38 35 39 42 45 43 39 38 32 30 33 33 32 33 33 33 32 30 29 28 25 22 18 16 15 13 14 13 11 5 9 6
39 39 39 42 44 45 40 40 35 34 37 34 34 33 33 35 36 37 34 29 22 18 18 17 14 14 11 12 6 3 3 3
39 42 41 42 42 44 46 40 39 31 38 35 37 35 33 33 40 36 31 25 26 25 20 20 18 17 13 10 8 6 5 4
Wind_Direction
169 167 170 173 175 177 179 178 177 173 173 173 171 171 174 176 175 170 168 163 167 166 163 162 159 162 165 243 333 278 137 9
171 171 171 173 179 182 181 180 179 176 176 174 175 174 178 181 180 177 173 174 178 178 180 178 177 176 174 253 210 153 159 311
166 169 171 173 176 179 179 180 179 178 177 176 176 177 178 185 177 190 182 183 186 188 193 195 202 192 169 253 206 244 280 294
172 171 170 172 164 173 176 179 179 179 180 179 177 179 178 185 193 197 196 191 191 195 199 202 214 204 189 90 252 333 183 57
174 177 174 171 170 176 176 182 183 178 183 187 175 183 180 183 191 197 203 199 197 202 207 215 216 244 237 236 243 270 231 202
176 178 176 178 173 182 174 180 182 182 187 195 180 190 185 185 200 205 204 207 196 219 215 213 229 241 263 262 269 253 290 250
183 179 178 183 179 179 180 184 186 188 191 197 191 200 189 190 200 189 199 208 201 221 220 209 204 223 222 226 244 257 290 221
187 182 179 184 193 181 182 189 188 193 196 198 196 205 200 192 207 193 206 207 210 215 213 200 232 222 208 205 221 240 235 241
185 184 180 184 196 188 183 193 191 192 198 199 201 201 210 190 206 205 216 217 211 203 225 207 212 227 212 214 214 229 227 228
181 185 188 186 192 201 187 192 201 187 190 187 192 198 200 195 205 209 213 222 214 215 221 235 225 232 235 228 236 229 239 239
178 187 190 187 190 198 193 198 194 197 197 212 195 194 200 202 204 211 210 221 202 215 223 230 226 238 231 228 221 224 224 237
176 183 190 187 188 196 198 201 195 193 202 201 214 209 199 208 203 212 207 214 215 221 221 227 227 231 241 209 214 219 242 247
174 178 187 184 188 191 195 195 189 200 193 197 204 203 198 206 203 211 206 209 221 219 216 216 225 237 256 273 268 254 241 239
174 180 182 188 191 194 195 192 194 195 201 201 202 201 196 201 201 208 203 208 220 220 214 216 216 239 210 241 290 290 247 236
177 179 183 188 194 193 196 191 192 194 202 202 199 194 193 197 202 203 206 207 216 215 211 218 222 190 204 217 232 229 344 172
181 183 183 188 187 191 194 193 193 195 194 193 192 193 191 197 203 204 210 207 212 215 218 223 217 190 183 215 201 98 315 327
188 188 188 189 188 193 194 199 201 191 189 187 190 192 193 197 198 202 202 199 203 208 208 197 206 182 192 173 182 174 225 175
193 195 194 193 191 194 196 200 195 188 185 184 185 189 192 196 196 197 201 197 198 196 200 208 198 187 179 184 177 175 199 204
193 196 197 197 192 196 200 200 201 191 185 181 181 183 188 193 194 196 194 197 199 193 172 164 173 183 176 171 176 116 127 60
192 195 198 198 194 195 200 201 201 199 185 183 183 182 181 183 190 192 198 198 179 163 166 165 169 168 154 151 152 133 116 127